This demonstration page uses our WeatherBlox Daily Observations layout. Learn more.

Left ArrowRight Arrow

Hourly Observations for July 21, 2021

Temp ( °F °C ) Dew Point ( °F °C ) Humidity (%) Winds ( mph kmh ) Pressure ( in mb ) Visibility ( mi km ) Precip ( " mm )
12:15 am 00:15 Clear 66 18.7 59 15.2 80 80 SE 6 9 30.05 1018 10 16 N/A
12:35 am 00:35 Clear 66 19.1 59 15.1 78 78 SE 6 9 30.05 1018 10 16 N/A
12:55 am 00:55 Clear 67 19.6 59 15.1 75 75 SE 8 13 30.05 1017 10 16 N/A
1:15 am 01:15 Clear 67 19.7 60 15.3 76 76 SE 8 13 30.04 1017 10 16 N/A
1:35 am 01:35 Clear 67 19.4 60 15.6 79 79 SE 6 9 30.04 1017 10 16 N/A
1:55 am 01:55 Clear 66 19.1 60 15.8 81 81 SE 7 11 30.04 1017 10 16 N/A
2:15 am 02:15 Clear 65 18.6 61 16 85 85 SE 6 9 30.04 1017 10 16 N/A
2:35 am 02:35 Clear 65 18.2 61 16 87 87 SE 6 9 30.05 1018 10 16 N/A
2:55 am 02:55 Clear 65 18.2 61 16.2 88 88 SE 7 11 30.04 1017 10 16 N/A
3:15 am 03:15 Clear 65 18.6 62 16.5 88 88 SE 5 7 30.03 1017 10 16 N/A
3:35 am 03:35 Clear 66 18.9 62 16.5 86 86 SE 7 11 30.03 1017 10 16 N/A
3:55 am 03:55 Clear 66 18.8 62 16.6 87 87 SE 7 11 30.03 1017 10 16 N/A
4:15 am 04:15 Clear 65 18.5 62 16.6 89 89 SE 6 9 30.03 1017 10 16 N/A
4:35 am 04:35 Clear 64 18 62 16.6 92 92 SE 6 9 30.04 1017 10 16 N/A
4:55 am 04:55 Clear 64 17.6 62 16.4 93 93 SE 3 6 30.04 1017 10 16 N/A
5:15 am 05:15 Clear 63 17.1 61 16.1 94 94 SE 5 7 30.05 1018 10 16 N/A
5:35 am 05:35 Clear 63 17.4 61 16.1 92 92 SSE 5 7 30.04 1017 10 16 N/A
5:55 am 05:55 Clear 64 17.6 61 16.1 91 91 SSE 6 9 30.05 1018 10 16 N/A
6:15 am 06:15 Clear 64 17.5 61 16 91 91 SSE 6 9 30.04 1017 10 16 N/A
6:35 am 06:35 Sunny 64 17.5 61 16 91 91 S 9 15 30.05 1018 7 11 N/A
6:55 am 06:55 Sunny 64 17.8 61 16 89 89 N N/A 30.05 1018 10 16 N/A
7:15 am 07:15 Sunny 64 17.8 61 16 89 89 S 7 11 30.05 1018 10 16 N/A
7:35 am 07:35 Sunny 65 18.1 61 16 88 88 SSW 6 9 30.06 1018 10 16 N/A
7:55 am 07:55 Sunny 67 19.2 61 16.3 83 83 SSW 8 13 30.05 1018 10 16 N/A
8:15 am 08:15 Sunny 68 20.2 61 16.3 78 78 S 13 20 30.04 1017 10 16 N/A
8:35 am 08:35 Sunny 70 21.1 62 16.4 75 75 SSW 14 22 30.03 1017 10 16 N/A
8:55 am 08:55 Sunny 69 20.7 61 16.2 76 76 SSW 13 20 30.04 1017 10 16 N/A
9:15 am 09:15 Sunny 69 20.5 61 16.2 76 76 SSW 14 22 30.04 1017 10 16 N/A
9:35 am 09:35 Sunny 70 21.3 62 16.6 75 75 SSW 14 22 30.03 1017 10 16 N/A
9:55 am 09:55 Sunny 73 22.7 63 17.2 71 71 SSW 16 26 30.02 1017 10 16 N/A
10:15 am 10:15 Sunny 75 23.8 64 18 70 70 SW 9 15 30.01 1016 10 16 N/A
10:35 am 10:35 Sunny 76 24.5 64 18 67 67 SSW 15 24 30.00 1016 10 16 N/A
10:55 am 10:55 Sunny 78 25.5 64 18 63 63 SSW 15 24 30.00 1016 10 16 N/A
11:15 am 11:15 Sunny 80 26.4 64 17.9 60 60 SSW 15 24 29.99 1015 10 16 N/A
11:35 am 11:35 Partly Cloudy 81 27.1 64 17.5 56 56 SSW 16 26 29.97 1015 10 16 N/A
11:55 am 11:55 Partly Cloudy 81 27.2 63 17.3 55 55 SSW 20 31 29.97 1015 10 16 N/A
12:15 pm 12:15 Partly Cloudy 82 27.5 62 16.6 51 51 S 21 33 29.97 1015 10 16 N/A
12:35 pm 12:35 Sunny 82 28 63 17.2 52 52 S 15 24 29.95 1014 10 16 N/A
12:55 pm 12:55 Sunny 82 27.9 62 16.6 50 50 S 17 28 29.95 1014 10 16 N/A
1:15 pm 13:15 Sunny 84 29 64 17.5 50 50 S 18 30 29.94 1014 10 16 N/A
1:35 pm 13:35 Sunny 83 28.1 62 16.5 49 49 S 18 30 29.93 1014 10 16 N/A
1:55 pm 13:55 Sunny 82 27.7 62 16.7 51 51 S 21 33 29.93 1013 10 16 N/A
2:15 pm 14:15 Sunny 82 28 63 17.3 52 52 S 16 26 29.92 1013 10 16 N/A
2:35 pm 14:35 Sunny 83 28.4 62 16.9 50 50 S 17 28 29.91 1013 10 16 N/A
2:55 pm 14:55 Sunny 85 29.2 63 17 48 48 S 20 31 29.92 1013 10 16 N/A
3:15 pm 15:15 Sunny 85 29.5 63 17.1 47 47 S 17 28 29.90 1013 10 16 N/A
3:35 pm 15:35 Sunny 86 29.8 62 16.8 46 46 S 18 30 29.90 1013 10 16 N/A
3:55 pm 15:55 Sunny 85 29.6 61 16.2 44 44 S 16 26 29.89 1012 10 16 N/A
4:15 pm 16:15 Sunny 86 29.9 62 16.5 44 44 SSE 18 30 29.89 1012 10 16 N/A
4:35 pm 16:35 Sunny 85 29.4 63 17 47 47 SSE 18 30 29.89 1012 10 16 N/A
4:55 pm 16:55 Sunny 85 29.5 64 17.5 48 48 SSE 14 22 29.89 1012 10 16 N/A
5:15 pm 17:15 Sunny 85 29.3 62 16.6 46 46 S 17 28 29.88 1012 10 16 N/A
5:35 pm 17:35 Sunny 85 29.2 62 16.7 47 47 SSE 17 28 29.89 1012 10 16 N/A
5:55 pm 17:55 Sunny 84 28.8 62 16.5 47 47 SSE 17 28 29.88 1012 10 16 N/A
6:15 pm 18:15 Sunny 84 28.7 62 16.8 49 49 SSE 18 30 29.88 1012 10 16 N/A
6:35 pm 18:35 Sunny 83 28.2 62 16.8 50 50 SSE 14 22 29.88 1012 10 16 N/A
6:55 pm 18:55 Sunny 82 28 62 16.6 50 50 SSE 16 26 29.88 1012 10 16 N/A
7:15 pm 19:15 Sunny 82 27.5 61 16 50 50 SSE 16 26 29.88 1012 10 16 N/A
7:35 pm 19:35 Sunny 81 27 60 15.6 50 50 SSE 14 22 29.89 1012 10 16 N/A
7:55 pm 19:55 Sunny 80 26.5 61 15.9 52 52 SSE 12 19 29.90 1012 10 16 N/A
8:15 pm 20:15 Sunny 78 25.8 61 16 55 55 SSE 12 19 29.90 1013 10 16 N/A
8:35 pm 20:35 Sunny 77 25.2 61 15.9 56 56 SSE 12 19 29.91 1013 10 16 N/A
8:55 pm 20:55 Sunny 76 24.5 62 16.4 61 61 SSE 10 17 29.91 1013 10 16 N/A
9:15 pm 21:15 Clear 75 23.7 61 16.2 63 63 SSE 12 19 29.92 1013 10 16 N/A
9:35 pm 21:35 Clear 74 23.4 60 15.8 62 62 SSE 13 20 29.92 1013 10 16 N/A
9:55 pm 21:55 Clear 73 22.9 60 15.7 64 64 SSE 10 17 29.95 1014 10 16 N/A
10:15 pm 22:15 Clear 72 22.3 60 15.5 66 66 SSE 9 15 29.95 1014 10 16 N/A
10:35 pm 22:35 Clear 72 22.1 59 15.2 65 65 SSE 12 19 29.95 1014 10 16 N/A
10:55 pm 22:55 Clear 71 21.6 59 15.2 67 67 SSE 8 13 29.97 1015 10 16 N/A
11:15 pm 23:15 Clear 71 21.6 59 15 66 66 SSE 12 19 29.97 1015 10 16 N/A
11:35 pm 23:35 Clear 70 21.3 59 15 67 67 SSE 9 15 29.97 1015 10 16 N/A
11:55 pm 23:55 Clear 70 21 59 14.9 68 68 S 9 15 29.96 1015 10 16 N/A

Powered by AerisWeather